Miscellaneous Local Product
Issued by NWS Hastings, NE

Home | Current Version | Previous Version | Text Only | Print | Product List | Glossary Off
Versions: 1 2 3 4 5 6 7 8 9 10 11 12 13 14 15 16 17 18 19 20 21 22 23 24 25 26 27 28 29 30 31 32 33 34 35 36 37 38 39 40 41 42 43 44 45 46 47 48 49 50

000
AXUS43 KGID 212202
MISGRI

GID CWA HOURLY WEATHER ROUNDUP
NATIONAL WEATHER SERVICE HASTINGS NE
500 PM CDT SAT OCT 21 2017

NOTE: "FAIR" INDICATES FEW OR NO CLOUDS BELOW 12,000 FEET WITH NO
SIGNIFICANT WEATHER AND/OR OBSTRUCTIONS TO VISIBILITY.

...SOUTH CENTRAL NEBRASKA...

CITY           SKY/WX    TMP DP  RH WIND       PRES   REMARKS
GRAND ISLAND   MOSUNNY   55  39  54 NW20      29.91R
KEARNEY        CLOUDY    55  38  52 N14       29.92F
HASTINGS       SUNNY     55  38  52 NW21G29   29.91S
ORD            CLOUDY    58  36  43 NW20G26   29.89R
YORK           SUNNY     57  39  51 NW26G33   29.87R
AURORA         CLOUDY    57  37  48 NW20G26   29.89R
LEXINGTON      SUNNY     59  36  42 NW12G20   29.93R
HOLDREGE       SUNNY     57  37  47 NW13G23   29.93R
HEBRON         MOSUNNY   63  40  43 NW20G31   29.86R

...NEBRASKA PANHANDLE...

CITY           SKY/WX    TMP DP  RH WIND       PRES   REMARKS
CHADRON        SUNNY     60   9  13 W17G32    29.92R
ALLIANCE       MOSUNNY   56  15  20 W20G26    29.94R HAZE
SCOTTSBLUFF    MOSUNNY   57  11  16 W17G28    29.96R
SIDNEY         SUNNY     56  15  20 NW23G30   29.99R

...WESTERN AND NORTH CENTRAL NEBRASKA...

CITY           SKY/WX    TMP DP  RH WIND       PRES   REMARKS
VALENTINE      SUNNY     60  28  29 W17       29.87R
AINSWORTH      MOSUNNY   57  30  35 NW17G23   29.88R
ONEILL         MOSUNNY   55  39  54 NW14      29.87R
BROKEN BOW     SUNNY     57  36  45 NW15      29.90S
IMPERIAL       SUNNY     61  18  18 NW17G24   29.95R
NORTH PLATTE   SUNNY     61  26  26 NW21G30   29.93R
MCCOOK         SUNNY     63  27  25 N13G24    29.93R

...EASTERN NEBRASKA...

CITY           SKY/WX    TMP DP  RH WIND       PRES   REMARKS
NORFOLK        CLOUDY    54  38  54 NW21G29   29.84R
SO SIOUX CITY  CLOUDY    56  43  61 NW17G28   29.79R
TEKAMAH        CLOUDY    59  41  51 NW14G26   29.81R
COLUMBUS       CLOUDY    59  40  49 NW22G29   29.86R
ALBION         PTSUNNY   56  38  50 NW18G24   29.88R
OMAHA EPPLEY   PTSUNNY   63  45  51 NW23      29.79R
OFFUTT AFB     CLOUDY    62  45  53 NW16G25   29.80R
MILLARD        CLOUDY    63  47  55 NW10G18   29.81R
LINCOLN        CLOUDY    61  40  45 NW17G25   29.85R
NEBRASKA CITY  CLOUDY    64  48  54 NW21G26   29.79R
BEATRICE       MOSUNNY   62  43  49 NW25G35   29.84R
FALLS CITY     LGT RAIN  63  59  87 S9        29.76S

...NORTHERN KANSAS...

CITY           SKY/WX    TMP DP  RH WIND       PRES   REMARKS
GOODLAND       SUNNY     61  18  18 NW20G31   29.97R
HILL CITY      CLOUDY    63  34  33 N14       29.95R
NORTON         PTCLDY    59  28  31 NW16      29.93R
PHILLIPSBURG   PTSUNNY   61  37  41 NW16      29.94R
SMITH CENTER   SUNNY     57  39  51 NW17      29.92R
HAYS           PTSUNNY   62  38  40 N20       29.93R
RUSSELL        PTSUNNY   64  42  44 NW24      29.88R
CONCORDIA      SUNNY     65  42  43 N22G28    29.86R
SALINA         CLOUDY    70  45  40 N22G28    29.84R
TOPEKA         CLOUDY    68  63  84 W6        29.78R



USA.gov is the U.S. government's official web portal to all federal, state and local government web resources and services.